Location: Kumla
(59.1265°N, 15.1401°E)
Time: 07:19:33
(UTC+01:00)

Transit 4A - Pass Details

Date: 08 December 2023
Orbit: 870 x 973 km, 66.8° (Epoch: 02 March)

Event Time Altitude Azimuth Distance (km) Brightness Sun altitude
Rises 19:32:04 0° 200° (SSW) 3,659 11.1 -32.2°
Reaches altitude 10° 19:34:42 10° 195° (SSW) 2,712 10.3 -32.6°
Enters shadow 19:35:18 13° 193° (SSW) 2,508 10.1 -32.6°
